• Processing (Info)

  • MPEC 2006-C13 : 2006 CE

    The following Minor Planet Electronic Circular may be linked-to from your own Web pages, but must not otherwise be redistributed electronically.

    A form allowing access to any MPEC is at the bottom of this page.


    Read MPEC 2006-C12 Read MPEC 2006-C14


    M.P.E.C. 2006-C13                                Issued 2006 Feb. 3, 18:40 UT
    
         The Minor Planet Electronic Circulars contain information on unusual
             minor planets and routine data on comets.  They are published
       on behalf of Commission 20 of the International Astronomical Union by the
              Minor Planet Center, Smithsonian Astrophysical Observatory,
                              Cambridge, MA 02138, U.S.A.
    
                      Supported in part by the Brinson Foundation
                      Supported in part by the TABASGO Foundation
                 Prepared using the Tamkin Foundation Computer Network
    
                                  MPC@CFA.HARVARD.EDU
              URL http://cfa-www.harvard.edu/iau/mpc.html  ISSN 1523-6714
    
                                        2006 CE
    
    Observations:
         K06C00E* C2006 02 01.25265 10 48 49.35 +63 27 44.2          19.1 V EC013703
         K06C00E  C2006 02 01.25870 10 48 46.54 +63 27 43.1          20.0 V EC013703
         K06C00E  C2006 02 01.26471 10 48 43.77 +63 27 41.6          19.3 V EC013703
         K06C00E  C2006 02 01.27074 10 48 41.22 +63 27 39.7          18.9 V EC013703
         K06C00E  C2006 02 01.28425 10 48 35.24 +63 27 36.7          19.1 V EC013703
         K06C00E  C2006 02 01.29074 10 48 32.32 +63 27 35.1          19.1 V EC013703
         K06C00E  C2006 02 01.29734 10 48 29.73 +63 27 32.9          18.4 V EC013703
         K06C00E  C2006 02 01.30384 10 48 26.53 +63 27 30.8          19.0 V EC013703
         K06C00E  C2006 02 01.47187 10 47 10.77 +63 26 34.5          18.6 R EC013711
         K06C00E  C2006 02 01.47714 10 47 08.43 +63 26 32.5          18.6 R EC013711
         K06C00E  C2006 02 01.48249 10 47 06.03 +63 26 30.6          18.7 R EC013711
         K06C00E 3C2006 02 01.49537 10 47 01.88 +63 26 30.3          19.2 R EC013F65
         K06C00E 3C2006 02 01.49634 10 47 01.43 +63 26 29.9          19.3 R EC013F65
         K06C00E 3C2006 02 01.49745 10 47 00.92 +63 26 29.6          19.3 R EC013F65
         K06C00E 3C2006 02 01.49855 10 47 00.44 +63 26 29.2          19.1 R EC013F65
         K06C00E  C2006 02 01.75325 10 45 09.00 +63 24 36.7          19.3 V EC013198
         K06C00E  C2006 02 01.75437 10 45 08.50 +63 24 36.4          19.3 V EC013198
         K06C00E  C2006 02 01.75511 10 45 08.18 +63 24 36.2          19.3 V EC013198
         K06C00E  C2006 02 01.75624 10 45 07.69 +63 24 35.9          19.3 V EC013198
         K06C00E  C2006 02 01.75699 10 45 07.37 +63 24 35.7          19.3 V EC013198
         K06C00E  C2006 02 02.31060 10 40 58.90 +63 20 52.9          19.9 R EC013651
         K06C00E  C2006 02 02.31172 10 40 58.42 +63 20 52.6          20.0 R EC013651
         K06C00E  C2006 02 02.31284 10 40 57.77 +63 20 52.3          20.1 R EC013651
         K06C00E 5C2006 02 02.33414 10 40 48.48 +63 20 40.5          19.2 R EC013673
         K06C00E 5C2006 02 02.34051 10 40 45.22 +63 20 38.1                 EC013673
         K06C00E 5C2006 02 02.37697 10 40 28.40 +63 20 21.9                 EC013673
         K06C00E 5C2006 02 02.38035 10 40 26.91 +63 20 20.1                 EC013673
         K06C00E  C2006 02 02.39727 10 40 18.64 +63 20 12.5          19.1 V EC013703
         K06C00E  C2006 02 02.41096 10 40 12.18 +63 20 05.3                 EC013703
         K06C00E  C2006 02 02.44395 10 39 56.83 +63 19 48.9          19.4 R EC013711
         K06C00E  C2006 02 02.44944 10 39 54.27 +63 19 46.1          19.0 R EC013711
         K06C00E  C2006 02 02.45493 10 39 51.68 +63 19 42.8          19.2 R EC013711
         K06C00E  C2006 02 02.90983 10 36 26.05 +63 15 38.6          18.3   EC013147
         K06C00E  C2006 02 02.91309 10 36 24.50 +63 15 37.1          18.7   EC013147
         K06C00E  C2006 02 02.91782 10 36 22.28 +63 15 33.4          18.5   EC013147
         K06C00E  C2006 02 02.91999 10 36 21.22 +63 15 32.2          18.5   EC013147
         K06C00E  C2006 02 03.38329 10 32 45.10 +63 10 58.2          19.1 R EC013734
         K06C00E  C2006 02 03.38623 10 32 43.46 +63 10 55.4          19.3 R EC013734
         K06C00E  C2006 02 03.38918 10 32 42.20 +63 10 53.7          19.1 R EC013734
         K06C00E 2C2006 02 03.41375 10 32 30.74 +63 10 39.1          19.9 R EC013H06
         K06C00E 2C2006 02 03.42714 10 32 24.37 +63 10 30.1          18.7 R EC013H06
         K06C00E 2C2006 02 03.44057 10 32 18.13 +63 10 20.9          18.7 R EC013H06
    
    Observer details:
    147 Osservatorio Astronomico di Suno.  Observers D. Crespi, S. Foglia,
        G. Galli, S. Minuto.  Measurer S. Foglia.  0.40-m f/4 reflector + CCD.
    198 Wildberg.  Observer R. Apitzsch.  0.35-m f/4.2 reflector + CCD.
    651 Grasslands Observatory, Tucson.  Observer J. E. McGaha.  0.62-m f/5.1
        Newtonian reflector + CCD.
    673 Table Mountain Observatory, Wrightwood.  Observer J. Young.  0.6-m f/16
        Cassegrain + CCD.
    703 Catalina Sky Survey.  Observers R. A. Kowalski, E. J. Christensen.
        Measurers E. C. Beshore, E. J. Christensen, G. J. Garradd, A. D. Grauer,
        R. E. Hill, R. A. Kowalski, S. M. Larson, R. H. McNaught.  0.68-m Schmidt
        + CCD.
    711 McDonald Observatory.  Observer J. G. Ries.  0.76-m reflector + CCD
        + prime-focus corrector.
    734 Farpoint Observatory.  Observer G. Hug.  0.7-m reflector + CCD.
    F65 Haleakala-Faulkes Telescope North.  Observers C. A. Sawyer, A. S. E. Allen,
        O. E. D. Fincham, N. P. Lurie, M. S. S. Cooke, C. J. Barry, G. A. Mayhew,
        M. J. Fitch, M. E. Morgan, L. M. Voigt, D. M. Tanton, A. D. Taylor.  2.0-m
        Ritchey-Chretien + CCD.
    H06 New Mexico Skies Observatory.  Observer R. Hutsebaut.  0.30-m reflector
        + CCD.
    
    Orbital elements:
    2006 CE                                                  Earth MOID = 0.2560 AU
    Epoch 2006 Mar. 6.0 TT = JDT 2453800.5                  MPC
    M 332.93861              (2000.0)            P               Q
    n   0.41566907     Peri.  231.34926     -0.81436312     +0.47920834
    a   1.7781603      Node   331.99104     +0.03211178     -0.52601700
    e   0.3613294      Incl.   44.19592     -0.57946660     -0.70261332
    P   2.37           H   18.3           G   0.15           U   9
    Residuals in seconds of arc
    060201 703  0.5+  0.6-    060201 F65  0.3+  0.1+    060202 703  1.0-  0.4-
    060201 703  0.3-  0.1-    060201 198  0.1-  0.3-    060202 711  0.4+  0.1+
    060201 703  1.0-  0.0     060201 198  0.2-  0.3-    060202 711  0.3+  0.2+
    060201 703  0.1-  0.3-    060201 198  0.1-  0.2-    060202 711  0.1+  0.2-
    060201 703  0.1+  0.4+    060201 198  0.1-  0.1-    060202 147  0.1+  0.8+
    060201 703  0.1-  0.6+    060201 198  0.0   0.1-    060202 147  0.1-  1.0+
    060201 703 (2.3+  0.2+)   060202 651  0.1-  0.1+    060202 147  0.2-  0.2-
    060201 703  0.3+  0.0     060202 651  0.2+  0.3+    060202 147  0.5-  0.3-
    060201 711  0.0   0.1+    060202 651  0.7-  0.5+    060203 734  0.4+  0.6+
    060201 711  0.2+  0.2+    060202 673  1.8+  0.7-    060203 734  1.2-  0.3-
    060201 711  0.2+  0.4+    060202 673  0.3-  0.3-    060203 734  0.2-  0.1-
    060201 F65  0.3+  0.1+    060202 673  0.3+  0.2+    060203 H06  0.1-  0.3-
    060201 F65  0.2+  0.0     060202 673  0.9+  0.0     060203 H06  0.1+  0.3-
    060201 F65  0.2+  0.1+    060202 703  0.4-  0.0     060203 H06  1.3+  0.3-
    
    Ephemeris:
    2006 CE                  a,e,i = 1.78, 0.36, 44                  q = 1.1357
    Date    TT    R. A. (2000) Decl.     Delta      r     Elong.  Phase     V
    2006 02 04    10 27.94   +63 03.8    0.569    1.427   131.3    31.2    19.2
    2006 02 14    09 06.11   +58 10.1    0.495    1.379   134.3    30.8    18.8
    2006 02 24    08 00.79   +47 14.1    0.454    1.333   131.2    33.9    18.6
    2006 03 06    07 22.80   +32 42.1    0.453    1.290   121.8    40.8    18.7
    2006 03 16    07 04.32   +18 26.6    0.489    1.250   110.0    48.4    19.0
    2006 03 26    06 57.20   +06 34.1    0.550    1.215    99.3    54.1    19.4
    2006 04 05    06 56.71   -02 47.4    0.623    1.185    90.7    57.6    19.7
    2006 04 15    07 00.21   -10 14.8    0.699    1.161    84.0    59.2    20.0
    2006 04 25    07 06.31   -16 24.9    0.770    1.145    79.1    59.6    20.2
    2006 05 05    07 14.37   -21 45.6    0.833    1.137    75.6    59.2    20.3
    2006 05 15    07 24.15   -26 36.9    0.884    1.137    73.4    58.4    20.4
    2006 05 25    07 35.75   -31 12.8    0.923    1.145    72.3    57.5    20.5
    2006 06 04    07 49.64   -35 44.8    0.949    1.161    72.4    56.4    20.6
    2006 06 14    08 06.56   -40 22.2    0.962    1.184    73.5    55.3    20.6
    2006 06 24    08 27.76   -45 11.2    0.966    1.214    75.4    54.1    20.6
    2006 07 04    08 55.32   -50 15.4    0.964    1.249    78.1    52.8    20.6
    2006 07 14    09 32.50   -55 29.0    0.960    1.289    81.4    51.2    20.7
    2006 07 24    10 24.53   -60 29.8    0.959    1.332    84.8    49.4    20.7
    2006 08 03    11 37.50   -64 28.3    0.968    1.378    88.0    47.4    20.7
    2006 08 13    13 10.59   -66 08.7    0.993    1.426    90.6    45.3    20.8
    2006 08 23    14 46.08   -64 41.3    1.037    1.475    92.1    43.2    20.9
    2006 09 02    16 04.20   -60 42.3    1.104    1.525    92.3    41.4    21.1
    2006 09 12    17 01.91   -55 29.4    1.192    1.575    91.1    39.7    21.2
    2006 09 22    17 44.91   -50 00.6    1.301    1.625    88.7    38.2    21.5
    2006 10 02    18 18.64   -44 45.7    1.426    1.674    85.3    36.6    21.7
    2006 10 12    18 46.55   -39 55.8    1.563    1.722    81.3    34.9    21.9
    
    Kyle E. Smalley              (C) Copyright 2006 MPC           M.P.E.C. 2006-C13
    

    Read MPEC 2006-C12 Read MPEC 2006-C14


    MPEC number:

    Enter an MPEC number in one of the following forms:

    • 1997-B01 (the full form)
    • J97B01 (the packed version of the full form)
    • B01 (the abbreviated form)